Weather History for Windom, MN

Change the Weather History Date:

Friday, June 14, 2013

  Actual Average Record
Temperature  
Mean Temperature 70 °F -  
Max Temperature 78 °F 83 °F 101 °F (1979)
Min Temperature 62 °F 56 °F 43 °F (1969)
Cooling Degree Days 5    
Growing Degree Days 20 (Base 50)    
Moisture  
Dew Point 59 °F    
Average Humidity 69    
Maximum Humidity 83    
Minimum Humidity 54    
Precipitation  
Precipitation 0.01 in - - ()
Sea Level Pressure  
Sea Level Pressure 29.95 in    
Wind  
Wind Speed 9 mph (SE)    
Max Wind Speed 25 mph    
Max Gust Speed 31 mph    
Visibility 10 miles    
Events Rain , Thunderstorm    
Averages and records for this station are not official NWS values.
T = Trace of Precipitation, MM = Missing Value Source: NWS Daily Summary

Daily Weather History Graph

Daily Weather History Graph

Search for Another Location

Airport:

Trip Planner

Search our weather history database for the weather conditions in past years. The results will help you decide how hot, cold, wet, or windy it might be!

Date:

Astronomy

Jun. 14, 2013 Rise Set
Actual Time 5:37 AM CDT 9:04 PM CDT
Civil Twilight 5:01 AM CDT 9:40 PM CDT
Nautical Twilight 4:13 AM CDT 10:28 PM CDT
Astronomical Twilight 3:13 AM CDT 11:28 PM CDT
Moon 11:23 AM CDT (6/14) 12:01 AM CDT (6/14)
Length of Visible Light 16h 39m
Length of Day
15h 27m
Waxing Crescent, 30% of the Moon is Illuminated
Jun 14
Waxing Crescent
Jun 16
First Quarter
Jun 23
Full
Jun 29
Last Quarter
Jul 8
New

Hourly Weather History & Observations

Time (CDT) Temp. Dew Point Humidity Pressure Visibility Wind Dir Wind Speed Gust Speed Precip Events Conditions
12:13 AM 64.4 °F 55.4 °F 73% 30.09 in 10.0 mi Calm Calm - N/A   Clear
12:32 AM 64.4 °F 55.4 °F 73% 30.07 in 10.0 mi Calm Calm - N/A   Clear
12:52 AM 64.4 °F 55.4 °F 73% 30.07 in 10.0 mi Calm Calm - N/A   Clear
1:13 AM 64.4 °F 53.6 °F 68% 30.06 in 10.0 mi East 6.9 mph - N/A   Clear
1:32 AM 64.4 °F 55.4 °F 73% 30.06 in 10.0 mi East 4.6 mph - N/A   Clear
1:52 AM 64.4 °F 55.4 °F 73% 30.05 in 10.0 mi East 5.8 mph - N/A   Clear
2:12 AM 64.4 °F 55.4 °F 73% 30.06 in 10.0 mi East 4.6 mph - N/A   Mostly Cloudy
2:32 AM 64.4 °F 55.4 °F 73% 30.07 in 10.0 mi East 4.6 mph - N/A   Overcast
2:53 AM 64.4 °F 57.2 °F 77% 30.11 in 10.0 mi Calm Calm - N/A Rain , Thunderstorm Light Thunderstorms and Rain
3:12 AM 64.4 °F 57.2 °F 77% 30.09 in 10.0 mi Calm Calm - N/A Rain , Thunderstorm Thunderstorms and Rain
3:32 AM 62.6 °F 57.2 °F 82% 30.07 in 7.0 mi Calm Calm - 0.01 in Rain , Thunderstorm Rain
3:53 AM 62.6 °F 57.2 °F 82% 30.03 in 10.0 mi ESE 11.5 mph - 0.01 in Rain Light Rain
4:12 AM 62.6 °F 57.2 °F 82% 30.04 in 10.0 mi ESE 4.6 mph - N/A   Overcast
4:32 AM 62.6 °F 57.2 °F 82% 30.01 in 10.0 mi ESE 12.7 mph - N/A   Overcast
4:53 AM 64.4 °F 57.2 °F 77% 29.99 in 10.0 mi SE 15.0 mph - N/A   Scattered Clouds
5:12 AM 64.4 °F 55.4 °F 73% 29.97 in 10.0 mi SE 13.8 mph 21.9 mph N/A   Clear
5:32 AM 64.4 °F 55.4 °F 73% 29.97 in 10.0 mi SE 15.0 mph 19.6 mph N/A   Scattered Clouds
5:53 AM 64.4 °F 55.4 °F 73% 29.99 in 10.0 mi SSE 13.8 mph 23.0 mph N/A   Scattered Clouds
6:12 AM 64.4 °F 55.4 °F 73% 30.00 in 10.0 mi SSE 13.8 mph 21.9 mph N/A   Mostly Cloudy
6:32 AM 64.4 °F 55.4 °F 73% 30.00 in 10.0 mi ESE 6.9 mph 17.3 mph N/A   Mostly Cloudy
6:53 AM 64.4 °F 55.4 °F 73% 30.00 in 10.0 mi SE 8.1 mph - N/A   Scattered Clouds
7:13 AM 64.4 °F 57.2 °F 77% 30.00 in 10.0 mi SE 9.2 mph - N/A   Clear
7:32 AM 66.2 °F 57.2 °F 73% 30.01 in 10.0 mi SE 8.1 mph - N/A   Clear
7:53 AM 66.2 °F 57.2 °F 73% 30.01 in 10.0 mi ESE 8.1 mph - N/A   Clear
8:13 AM 68.0 °F 57.2 °F 68% 30.01 in 10.0 mi ESE 8.1 mph - N/A   Scattered Clouds
8:32 AM 69.8 °F 57.2 °F 64% 30.00 in 10.0 mi ESE 12.7 mph - N/A   Clear
8:53 AM 69.8 °F 57.2 °F 64% 29.99 in 10.0 mi SE 16.1 mph 21.9 mph N/A   Clear
9:13 AM 69.8 °F 57.2 °F 64% 29.98 in 10.0 mi ESE 17.3 mph - N/A   Clear
9:32 AM 69.8 °F 57.2 °F 64% 29.98 in 10.0 mi SE 19.6 mph 25.3 mph N/A   Clear
9:53 AM 69.8 °F 57.2 °F 64% 29.99 in 10.0 mi SE 17.3 mph 23.0 mph N/A   Clear
10:13 AM 69.8 °F 57.2 °F 64% 29.97 in 10.0 mi SE 18.4 mph 24.2 mph N/A   Clear
10:32 AM 71.6 °F 59.0 °F 64% 29.96 in 10.0 mi SE 12.7 mph 20.7 mph N/A   Clear
10:53 AM 71.6 °F 60.8 °F 69% 29.97 in 10.0 mi SE 12.7 mph 21.9 mph N/A Rain Light Rain
11:13 AM 71.6 °F 57.2 °F 60% 29.98 in 10.0 mi SE 17.3 mph 23.0 mph N/A   Clear
11:32 AM 75.2 °F 60.8 °F 61% 29.96 in 10.0 mi SE 17.3 mph 23.0 mph N/A   Clear
11:53 AM 75.2 °F 60.8 °F 61% 29.95 in 10.0 mi SE 19.6 mph 24.2 mph N/A   Clear
12:13 PM 77.0 °F 60.8 °F 57% 29.94 in 10.0 mi SE 17.3 mph 24.2 mph N/A   Clear
12:32 PM 77.0 °F 60.8 °F 57% 29.94 in 10.0 mi SE 18.4 mph 26.5 mph N/A   Clear
12:53 PM 77.0 °F 60.8 °F 57% 29.95 in 10.0 mi SSE 16.1 mph 25.3 mph N/A   Scattered Clouds
1:13 PM 77.0 °F 60.8 °F 57% 29.96 in 10.0 mi SSE 15.0 mph 23.0 mph N/A   Mostly Cloudy
1:32 PM 78.8 °F 60.8 °F 54% 29.95 in 10.0 mi SE 17.3 mph 26.5 mph N/A   Mostly Cloudy
1:53 PM 78.8 °F 60.8 °F 54% 29.94 in 10.0 mi SE 17.3 mph 26.5 mph N/A   Scattered Clouds
2:13 PM 78.8 °F 60.8 °F 54% 29.93 in 10.0 mi SSE 16.1 mph 29.9 mph N/A   Scattered Clouds
2:32 PM 78.8 °F 60.8 °F 54% 29.91 in 10.0 mi SSE 18.4 mph 29.9 mph N/A   Scattered Clouds
2:52 PM 78.8 °F 60.8 °F 54% 29.89 in 10.0 mi SE 24.2 mph 31.1 mph N/A   Scattered Clouds
3:13 PM 77.0 °F 60.8 °F 57% 29.89 in 10.0 mi SSE 25.3 mph 31.1 mph N/A   Clear
3:32 PM 78.8 °F 60.8 °F 54% 29.89 in 10.0 mi SE 23.0 mph 29.9 mph N/A   Clear
3:52 PM 77.0 °F 62.6 °F 61% 29.88 in 10.0 mi SE 20.7 mph 28.8 mph N/A   Clear
4:13 PM 77.0 °F 60.8 °F 57% 29.87 in 10.0 mi SE 21.9 mph 28.8 mph N/A   Clear
4:32 PM 77.0 °F 60.8 °F 57% 29.88 in 10.0 mi SSE 24.2 mph 31.1 mph N/A   Clear
4:52 PM 75.2 °F 60.8 °F 61% 29.88 in 10.0 mi SSE 18.4 mph 29.9 mph N/A   Clear
5:13 PM 75.2 °F 60.8 °F 61% 29.87 in 10.0 mi SSE 20.7 mph 26.5 mph N/A   Clear
5:32 PM 73.4 °F 60.8 °F 65% 29.87 in 10.0 mi SSE 18.4 mph 28.8 mph N/A   Clear
5:52 PM 73.4 °F 60.8 °F 65% 29.87 in 10.0 mi SSE 17.3 mph 23.0 mph N/A   Scattered Clouds
6:13 PM 73.4 °F 62.6 °F 69% 29.87 in 10.0 mi SSE 17.3 mph 26.5 mph N/A   Clear
6:32 PM 73.4 °F 62.6 °F 69% 29.87 in 10.0 mi South 16.1 mph 25.3 mph N/A   Mostly Cloudy
6:52 PM 73.4 °F 62.6 °F 69% 29.85 in 10.0 mi SSE 17.3 mph 21.9 mph N/A   Scattered Clouds
7:13 PM 73.4 °F 62.6 °F 69% 29.85 in 10.0 mi SE 16.1 mph 20.7 mph N/A   Clear
7:32 PM 73.4 °F 62.6 °F 69% 29.85 in 10.0 mi SE 15.0 mph 18.4 mph N/A   Clear
7:52 PM 73.4 °F 62.6 °F 69% 29.85 in 10.0 mi SE 11.5 mph 18.4 mph N/A   Mostly Cloudy
8:13 PM 73.4 °F 62.6 °F 69% 29.85 in 10.0 mi SE 11.5 mph - N/A   Overcast
8:32 PM 71.6 °F 62.6 °F 73% 29.87 in 10.0 mi SSE 11.5 mph 16.1 mph N/A   Overcast
8:52 PM 71.6 °F 62.6 °F 73% 29.89 in 10.0 mi SE 10.4 mph 18.4 mph N/A   Overcast
9:13 PM 71.6 °F 62.6 °F 73% 29.87 in 10.0 mi SSE 9.2 mph - N/A   Overcast
9:32 PM 69.8 °F 62.6 °F 78% 29.86 in 10.0 mi Calm Calm - N/A   Mostly Cloudy
9:52 PM 69.8 °F 62.6 °F 78% 29.87 in 10.0 mi Calm Calm - N/A   Mostly Cloudy
10:13 PM 69.8 °F 62.6 °F 78% 29.88 in 10.0 mi Calm Calm - N/A   Overcast
10:32 PM 69.8 °F 64.4 °F 83% 29.88 in 10.0 mi Calm Calm - N/A   Overcast
10:52 PM 69.8 °F 64.4 °F 83% 29.89 in 10.0 mi SE 6.9 mph - N/A   Mostly Cloudy
11:13 PM 69.8 °F 64.4 °F 83% 29.89 in 10.0 mi SE 10.4 mph - N/A   Overcast
11:32 PM 69.8 °F 64.4 °F 83% 29.89 in 10.0 mi SE 13.8 mph 17.3 mph N/A   Overcast
11:52 PM 69.8 °F 62.6 °F 78% 29.88 in 10.0 mi SE 13.8 mph 19.6 mph N/A   Mostly Cloudy